Weather History for Marion, IN

Change the Weather History Date:

Thursday, December 19, 2013

  Actual Average (KMIE) Record (KMIE)
Temperature  
Mean Temperature 36 °F 30 °F  
Max Temperature 78 °F 37 °F 56 °F (1967)
Min Temperature 30 °F 22 °F -9 °F (1983)
Degree Days  
Heating Degree Days 29 36  
Month to date heating degree days 622  
Since 1 July heating degree days 1757  
Cooling Degree Days 0 0  
Month to date cooling degree days 0  
Year to date cooling degree days 956  
Moisture  
Dew Point 30 °F    
Average Humidity 75    
Maximum Humidity 83    
Minimum Humidity 60    
Precipitation  
Precipitation 0.00 in 0.09 in 2.27 in (2008)
Month to date precipitation 1.79  
Year to date precipitation 39.03  
Sea Level Pressure  
Sea Level Pressure 29.94 in    
Wind  
Wind Speed 12 mph (SSW)    
Max Wind Speed 17 mph    
Max Gust Speed 24 mph    
Visibility 9 miles    
Events      
T = Trace of Precipitation, MM = Missing Value Source: NWS Daily Summary

Daily Weather History Graph

Daily Weather History Graph

Search for Another Location

Airport:

Trip Planner

Search our weather history database for the weather conditions in past years. The results will help you decide how hot, cold, wet, or windy it might be!

Date:

Astronomy

Dec. 19, 2013 Rise Set
Actual Time 8:01 AM EST 5:18 PM EST
Civil Twilight 7:30 AM EST 5:49 PM EST
Nautical Twilight 6:56 AM EST 6:23 PM EST
Astronomical Twilight 6:23 AM EST 6:56 PM EST
Moon 7:44 PM EST (12/19) 9:19 AM EST (12/19)
Length of Visible Light 10h 18m
Length of Day
9h 16m
Waning Gibbous, 95% of the Moon is Illuminated
Dec 19
Waning Gibbous
Dec 25
Last Quarter
Jan 1
New
Jan 7
First Quarter
Jan 15
Full

Hourly Weather History & Observations

Time (EST) Temp. Windchill Dew Point Humidity Pressure Visibility Wind Dir Wind Speed Gust Speed Precip Events Conditions
12:15 AM 31.5 °F 20.1 °F 19.2 °F 61% 29.95 in 10.0 mi SSW 17.3 mph 21.9 mph N/A   Clear
12:35 AM 31.6 °F 20.7 °F 19.2 °F 60% 29.94 in 10.0 mi SSW 16.1 mph - N/A   Clear
12:55 AM 31.6 °F 21.2 °F 19.4 °F 61% 29.94 in 10.0 mi SSW 15.0 mph - N/A   Clear
1:15 AM 31.3 °F 20.3 °F 19.4 °F 61% 29.94 in 10.0 mi SSW 16.1 mph - N/A   Clear
1:35 AM 31.1 °F 20.1 °F 19.4 °F 62% 29.94 in 10.0 mi SSW 16.1 mph - N/A   Clear
1:55 AM 30.9 °F 19.8 °F 19.4 °F 62% 29.93 in 10.0 mi SSW 16.1 mph - N/A   Clear
2:15 AM 31.1 °F 20.1 °F 19.8 °F 63% 29.94 in 10.0 mi SSW 16.1 mph - N/A   Clear
2:35 AM 31.1 °F 20.5 °F 20.1 °F 64% 29.94 in 10.0 mi SSW 15.0 mph - N/A   Clear
2:55 AM 31.1 °F 20.1 °F 20.3 °F 64% 29.94 in 10.0 mi SSW 16.1 mph - N/A   Clear
3:15 AM 31.3 °F 21.1 °F 20.7 °F 65% 29.95 in 10.0 mi SSW 13.8 mph - N/A   Clear
3:35 AM 31.8 °F 21.4 °F 21.2 °F 65% 29.95 in 10.0 mi SSW 15.0 mph - N/A   Clear
3:55 AM 32.2 °F 22.3 °F 22.3 °F 67% 29.95 in 10.0 mi SSW 13.8 mph - N/A   Clear
4:15 AM 32.7 °F 23.0 °F 23.2 °F 68% 29.94 in 10.0 mi SSW 13.8 mph - N/A   Clear
4:35 AM 32.7 °F 25.0 °F 24.1 °F 71% 29.94 in 10.0 mi SSW 9.2 mph - N/A   Clear
4:55 AM 33.6 °F 24.6 °F 25.5 °F 72% 29.94 in 10.0 mi SSW 12.7 mph - N/A   Clear
5:15 AM 35.4 °F 27.3 °F 27.7 °F 73% 29.94 in 10.0 mi SW 11.5 mph - N/A   Clear
5:35 AM 37.8 °F 29.4 °F 29.5 °F 72% 29.94 in 10.0 mi SW 13.8 mph - N/A   Clear
5:55 AM 38.3 °F 30.9 °F 30.2 °F 73% 29.94 in 10.0 mi SW 11.5 mph - N/A   Clear
6:15 AM 38.5 °F 30.7 °F 30.7 °F 74% 29.94 in 10.0 mi SW 12.7 mph - N/A   Clear
6:35 AM 39.6 °F 31.0 °F 31.5 °F 73% 29.94 in 10.0 mi SW 16.1 mph 21.9 mph N/A   Clear
6:55 AM 38.7 °F 31.8 °F 31.3 °F 75% 29.94 in 10.0 mi SSW 10.4 mph - N/A   Clear
7:15 AM 37.2 °F 30.0 °F 30.9 °F 78% 29.94 in 10.0 mi SSW 10.4 mph - N/A   Clear
7:35 AM 36.7 °F 30.5 °F 30.7 °F 79% 29.95 in 10.0 mi SSW 8.1 mph - N/A   Clear
7:55 AM 37.2 °F 29.1 °F 31.1 °F 79% 29.95 in 7.0 mi SSW 12.7 mph 24.2 mph N/A   Clear
8:15 AM 37.4 °F 32.1 °F 31.1 °F 78% 29.95 in 10.0 mi SSW 6.9 mph - N/A   Clear
8:35 AM 37.4 °F 29.8 °F 31.1 °F 78% 29.96 in 10.0 mi SSW 11.5 mph - N/A   Clear
8:55 AM 37.6 °F 29.1 °F 31.1 °F 77% 29.96 in 10.0 mi SSW 13.8 mph - N/A   Clear
9:15 AM 38.1 °F 29.8 °F 31.1 °F 76% 29.97 in 10.0 mi SSW 13.8 mph - N/A   Clear
9:35 AM 38.5 °F 30.7 °F 31.3 °F 75% 29.97 in 7.0 mi SSW 12.7 mph - N/A   Clear
9:55 AM 38.5 °F 30.7 °F 31.5 °F 76% 29.98 in 10.0 mi SSW 12.7 mph - N/A   Clear
10:15 AM 38.5 °F 31.6 °F 31.6 °F 76% 29.99 in 7.0 mi SSW 10.4 mph - N/A   Clear
10:35 AM 38.1 °F 31.7 °F 31.3 °F 76% 29.99 in 7.0 mi SSW 9.2 mph - N/A   Clear
10:55 AM 38.1 °F 32.3 °F 31.3 °F 76% 29.99 in 10.0 mi SSW 8.1 mph - N/A   Clear
11:15 AM 38.5 °F 31.6 °F 31.5 °F 76% 30.00 in 7.0 mi SSW 10.4 mph - N/A   Clear
11:35 AM 38.8 °F 32.1 °F 31.5 °F 75% 29.99 in 10.0 mi SSW 10.4 mph - N/A   Clear
11:55 AM 38.8 °F 32.1 °F 31.5 °F 75% 29.99 in 10.0 mi SSW 10.4 mph - N/A   Clear
12:15 PM 38.7 °F 32.4 °F 31.5 °F 75% 29.99 in 10.0 mi SSW 9.2 mph - N/A   Clear
12:35 PM 39.0 °F 32.8 °F 31.5 °F 74% 29.98 in 7.0 mi SSW 9.2 mph - N/A   Clear
12:55 PM 39.0 °F 32.3 °F 31.6 °F 75% 29.97 in 10.0 mi South 10.4 mph - N/A   Clear
1:15 PM 39.4 °F 32.3 °F 31.6 °F 74% 29.96 in 10.0 mi South 11.5 mph - N/A   Clear
1:35 PM 39.9 °F 33.4 °F 32.0 °F 73% 29.96 in 10.0 mi SSW 10.4 mph - N/A   Clear
1:55 PM 39.7 °F 33.7 °F 32.0 °F 74% 29.96 in 10.0 mi South 9.2 mph - N/A   Mostly Cloudy
2:15 PM 39.9 °F 34.5 °F 32.0 °F 73% 29.95 in 10.0 mi South 8.1 mph - N/A   Overcast
2:35 PM 39.4 °F 34.5 °F 32.0 °F 75% 29.95 in 7.0 mi South 6.9 mph - N/A   Overcast
2:55 PM 39.2 °F 32.5 °F 32.0 °F 75% 29.95 in 7.0 mi South 10.4 mph - N/A   Overcast
3:15 PM 39.2 °F 33.6 °F 32.0 °F 75% 29.95 in 10.0 mi South 8.1 mph - N/A   Overcast
3:35 PM 39.4 °F 33.8 °F 32.0 °F 75% 29.95 in 10.0 mi South 8.1 mph - N/A   Overcast
3:55 PM 39.2 °F 34.2 °F 32.0 °F 75% 29.95 in 10.0 mi South 6.9 mph - N/A   Overcast
4:15 PM 39.4 °F 34.5 °F 32.0 °F 75% 29.95 in 7.0 mi South 6.9 mph - N/A   Overcast
4:35 PM 39.2 °F 35.0 °F 32.0 °F 75% 29.95 in 10.0 mi South 5.8 mph - N/A   Overcast
4:55 PM 38.5 °F 35.0 °F 32.0 °F 78% 29.94 in 10.0 mi SE 4.6 mph - N/A   Overcast
5:15 PM 37.6 °F 35.1 °F 32.0 °F 80% 29.94 in 10.0 mi SSE 3.5 mph - N/A   Overcast
5:35 PM 37.6 °F 35.1 °F 32.0 °F 80% 29.94 in 10.0 mi SSE 3.5 mph - N/A   Overcast
5:55 PM 37.4 °F 33.8 °F 32.0 °F 81% 29.94 in 10.0 mi SSE 4.6 mph - N/A   Overcast
6:15 PM 36.9 °F 30.7 °F 32.2 °F 83% 29.94 in 10.0 mi South 8.1 mph - N/A   Overcast
6:35 PM 38.7 °F 32.4 °F 32.5 °F 79% 29.93 in 10.0 mi South 9.2 mph - N/A   Overcast
6:55 PM 39.2 °F 33.6 °F 33.1 °F 79% 29.93 in 10.0 mi South 8.1 mph - N/A   Overcast
7:15 PM 39.7 °F 33.7 °F 33.6 °F 79% 29.93 in 10.0 mi South 9.2 mph - N/A   Overcast
7:35 PM 40.1 °F 34.7 °F 34.0 °F 79% 29.93 in 7.0 mi South 8.1 mph - N/A   Overcast
7:55 PM 40.1 °F 34.7 °F 34.3 °F 80% 29.93 in 7.0 mi South 8.1 mph - N/A   Overcast
8:15 PM 40.1 °F 34.1 °F 34.7 °F 81% 29.92 in 7.0 mi South 9.2 mph - N/A   Overcast
8:35 PM 40.5 °F 35.1 °F 35.1 °F 81% 29.92 in 7.0 mi South 8.1 mph - N/A   Unknown
8:55 PM 40.8 °F 35.0 °F 35.4 °F 81% 29.91 in 7.0 mi South 9.2 mph - N/A   Overcast
9:15 PM 41.0 °F 34.7 °F 35.6 °F 81% 29.91 in 10.0 mi South 10.4 mph - N/A   Overcast
9:35 PM 41.2 °F 35.5 °F 35.6 °F 81% 29.90 in 7.0 mi South 9.2 mph - N/A   Overcast
9:55 PM 40.5 °F 34.6 °F 35.4 °F 82% 29.89 in 7.0 mi South 9.2 mph - N/A   Overcast
10:15 PM 40.5 °F 34.6 °F 35.4 °F 82% 29.89 in 10.0 mi South 9.2 mph - N/A   Overcast
10:35 PM 41.2 °F 34.5 °F 35.8 °F 81% 29.89 in 10.0 mi South 11.5 mph - N/A   Overcast
10:55 PM 41.5 °F 35.4 °F 35.8 °F 80% 29.88 in 7.0 mi South 10.4 mph - N/A   Overcast
11:15 PM 41.9 °F 35.0 °F 36.0 °F 79% 29.88 in 10.0 mi South 12.7 mph - N/A   Overcast
11:35 PM 42.1 °F 35.2 °F 36.0 °F 79% 29.89 in 10.0 mi South 12.7 mph - N/A   Overcast
11:55 PM 41.9 °F 36.9 °F 36.0 °F 79% 29.88 in 10.0 mi South 8.1 mph - N/A   Overcast